Location: Unspecified
(0.0000°N, 0.0000°E)
Time: 18:36:11
(UTC+00:00)

COSMOS 2401 - Pass Details

Date: 06 March 2021
Orbit: 1467 x 1500 km, 82.5° (Epoch: 11 April)

Event Time Altitude Azimuth Distance (km) Brightness Sun altitude
Rises 20:47:03 0° 219° (SW) 4,579 10.5 -38.8°
Reaches altitude 10° 20:51:23 10° 239° (WSW) 3,600 10.0 -39.9°
Maximum altitude 20:56:10 16° 273° (W) 3,144 9.7 -41.0°
Drops below altitude 10° 21:00:59 10° 308° (NW) 3,605 9.8 -42.2°
Sets 21:05:24 0° 328° (NNW) 4,588 10.2 -43.3°
